Weather History for KSTP - October, 2012

Change the Weather History Date:

Wednesday, October 10, 2012

  Actual Average Record
Temperature  
Mean Temperature 42 °F -  
Max Temperature 53 °F 60 °F 82 °F (2010)
Min Temperature 33 °F 39 °F 28 °F (2000)
Degree Days  
Heating Degree Days 23    
Moisture  
Dew Point 25 °F    
Average Humidity 50    
Maximum Humidity 73    
Minimum Humidity 33    
Precipitation  
Precipitation 0.00 in - - ()
Sea Level Pressure  
Sea Level Pressure 30.04 in    
Wind  
Wind Speed 10 mph (West)    
Max Wind Speed 14 mph    
Max Gust Speed 20 mph    
Visibility 10 miles    
Events      
Averages and records for this station are not official NWS values.
T = Trace of Precipitation, MM = Missing Value Source: NWS Daily Summary

Daily Weather History Graph

Daily Weather History Graph

Search for Another Location

Airport or City:

Trip Planner

Search our weather history database for the weather conditions in past years. The results will help you decide how hot, cold, wet, or windy it might be!

Date:

Astronomy

Oct. 10, 2012 Rise Set
Actual Time 7:22 AM CDT 6:35 PM CDT
Civil Twilight 6:52 AM CDT 7:04 PM CDT
Nautical Twilight 6:18 AM CDT 7:38 PM CDT
Astronomical Twilight 5:44 AM CDT 8:12 PM CDT
Moon 1:46 AM CDT (10/10) 3:49 PM CDT (10/10)
Length of Visible Light 12h 11m
Length of Day
11h 13m
Waning Crescent, 27% of the Moon is Illuminated
Oct 10
Waning Crescent
Oct 15
New
Oct 21
First Quarter
Oct 29
Full
Nov 6
Last Quarter

Hourly Weather History & Observations

Time (CDT) Temp. Windchill Dew Point Humidity Pressure Visibility Wind Dir Wind Speed Gust Speed Precip Events Conditions
12:53 AM 37.9 °F 30.9 °F 25.0 °F 60% 30.00 in 10.0 mi WNW 10.4 mph - N/A   Clear
1:53 AM 37.0 °F 28.9 °F 25.0 °F 62% 30.01 in 10.0 mi WNW 12.7 mph - N/A   Clear
2:53 AM 36.0 °F 27.5 °F 25.0 °F 64% 30.03 in 10.0 mi WNW 12.7 mph - N/A   Partly Cloudy
3:53 AM 36.0 °F 28.5 °F 25.0 °F 64% 30.03 in 10.0 mi WNW 10.4 mph - N/A   Overcast
4:53 AM 35.1 °F 28.6 °F 25.0 °F 67% 30.04 in 10.0 mi WNW 8.1 mph - N/A   Clear
5:53 AM 33.1 °F 27.7 °F 25.0 °F 72% 30.06 in 10.0 mi WNW 5.8 mph - N/A   Clear
6:53 AM 33.1 °F 26.9 °F 25.0 °F 72% 30.07 in 10.0 mi WNW 6.9 mph - N/A   Clear
7:53 AM 34.0 °F 28.8 °F 26.1 °F 73% 30.10 in 10.0 mi West 5.8 mph - N/A   Clear
8:53 AM 37.0 °F 31.0 °F 27.0 °F 67% 30.11 in 10.0 mi West 8.1 mph - N/A   Clear
9:53 AM 41.0 °F 35.8 °F 27.0 °F 57% 30.12 in 10.0 mi WNW 8.1 mph - N/A   Clear
10:53 AM 44.1 °F 37.4 °F 25.0 °F 47% 30.12 in 10.0 mi NW 13.8 mph 19.6 mph N/A   Clear
11:53 AM 46.9 °F - 21.9 °F 37% 30.12 in 10.0 mi NW 13.8 mph - N/A   Clear
12:53 PM 48.9 °F - 25.0 °F 39% 30.11 in 10.0 mi West 11.5 mph 17.3 mph N/A   Scattered Clouds
1:53 PM 48.9 °F - 24.1 °F 38% 30.09 in 10.0 mi West 9.2 mph - N/A   Overcast
2:53 PM 50.0 °F - 24.1 °F 36% 30.07 in 10.0 mi West 12.7 mph - N/A   Partly Cloudy
3:53 PM 51.1 °F - 24.1 °F 35% 30.05 in 10.0 mi West 8.1 mph - N/A   Partly Cloudy
4:53 PM 51.1 °F - 23.0 °F 33% 30.04 in 10.0 mi West 12.7 mph - N/A   Scattered Clouds
5:53 PM 51.1 °F - 23.0 °F 33% 30.02 in 10.0 mi WSW 6.9 mph - N/A   Overcast
6:53 PM 50.0 °F - 25.0 °F 38% 30.00 in 10.0 mi SSE 3.5 mph - N/A   Overcast
7:53 PM 48.9 °F - 27.0 °F 43% 29.99 in 10.0 mi SSE 8.1 mph - N/A   Overcast
8:53 PM 48.9 °F - 27.0 °F 43% 29.97 in 10.0 mi SSE 8.1 mph - N/A   Overcast
9:53 PM 48.9 °F - 28.0 °F 44% 29.94 in 10.0 mi SE 6.9 mph - N/A   Overcast
10:53 PM 48.9 °F - 27.0 °F 43% 29.91 in 10.0 mi SSE 11.5 mph - N/A   Overcast
11:53 PM 50.0 °F - 25.0 °F 38% 29.86 in 10.0 mi South 10.4 mph - N/A   Overcast